Regional Weather Roundup
Issued by NWS State College, PA

Home | Current Version | Previous Version | Text Only | Print | Product List | Glossary Off
Versions: 1 2 3 4 5 6 7 8 9 10 11 12 13 14 15 16 17 18 19 20 21 22 23 24 25 26 27 28 29 30 31 32 33 34 35 36 37 38 39 40 41 42 43 44 45 46 47 48 49 50

000
ASUS41 KCTP 271910
RWRCTP

REGIONAL WEATHER ROUNDUP
NATIONAL WEATHER SERVICE STATE COLLEGE PA
200 PM EST FRI FEB 27 2015

Note: "fair" indicates few or no clouds below 12,000 feet with no
significant weather and/or obstructions to visibility.

* = STATION THAT DOES NOT REPORT PRECIPITATION /E.G. RAIN...SNOW...ETC/
    THUNDER OR FOG.

PAZ002>004-007>009-013>016-020>023-029>032-272000-
WESTERN PENNSYLVANIA

CITY           SKY/WX    TMP DP  RH WIND       PRES   REMARKS
ERIE           SUNNY     11  -1  58 W9        30.56S WCI  -2
MEADVILLE        N/A     10  -4  53 NW7       30.47S WCI  -1
FRANKLIN*      SUNNY     10  -6  48 NW7G16    30.47R WCI   0
NEW CASTLE     FAIR      12  -4  48 VRB6      30.53S WCI   3
BEAVER COUNTY  SUNNY     16  -2  45 NW7       30.50S WCI   6
BUTLER*        SUNNY     14  -2  48 W8        30.50S WCI   3
PITTSBURGH INT MOSUNNY   16  -3  43 N8        30.49S WCI   5
PITTSBURGH     PTSUNNY   15  -4  42 W10       30.47S WCI   2
INDIANA*       MOSUNNY   16   1  53 W8G16     30.48R WCI   5
LATROBE        PTSUNNY   16   5  62 SW12      30.50S WCI   3
WASHINGTON CO* MOSUNNY   18   1  49 W6        30.50F WCI   9
$$

PAZ004>006-010>012-017>019-024>028-033>037-041-042-045-046-049>053-272000-
CENTRAL PENNSYLVANIA

CITY           SKY/WX    TMP DP  RH WIND       PRES   REMARKS
BRADFORD       MOSUNNY   12  -3  51 NW10      30.33R WCI  -1
DUBOIS         MOSUNNY   14   1  56 SW14      30.36S WCI  -1
CLEARFIELD     MIX PCPN  16   0  49 W10       30.39S WCI   4
JOHNSTOWN      MOSUNNY   12   1  61 W14G21    30.33R WCI  -3
ALTOONA        MOSUNNY   18   3  52 W9        30.39R WCI   7
STATE COLLEGE  MOSUNNY   21   3  45 NW14      30.39S WCI   8
WILLIAMSPORT   SUNNY     32   4  30 SW9       30.41F
SELINSGROVE    SUNNY     23   3  42 VRB3      30.43F
FT INDIANTOWN  SUNNY     24   1  37 VRB5      30.42S
CAPITAL CITY   SUNNY     26   7  44 NW12      30.44R
HARRISBURG     MOSUNNY   27   8  44 W6        30.44
YORK           MOSUNNY   26  10  50 NW9       30.43R
$$

PAZ038>040-043-044-047-048-054-055-060>062-067>071-272000-
EASTERN PENNSYLVANIA

CITY           SKY/WX    TMP DP  RH WIND       PRES   REMARKS
SCRANTON       MOSUNNY   21   3  45 NW14      30.36F WCI   8
MOUNT POCONO     N/A    N/A N/A N/A MISG      30.26S
ALLENTOWN      SUNNY     25   3  38 NW10      30.40R WCI  15
QUAKERTOWN*    CLEAR     25   3  39 NW8       30.40S
READING        SUNNY     25   2  37 NW12      30.41S WCI  14
LANCASTER      SUNNY     24   6  46 W14       30.42S WCI  12
COATESVILLE    CLEAR     25  10  54 N9        30.40R
POTTSTOWN      SUNNY     25   6  44 VRB7      30.42F
BLUE BELL      SUNNY     28   9  43 NW7       30.40R
DOYLESTOWN     SUNNY     25   5  42 NW9       30.39S
WILLOW GROVE   NOT AVBL
NORTH PHILA    SUNNY     30   8  39 NW13G20   30.42F
PHILADELPHIA   MOSUNNY   30   8  39 NW12      30.42F
$$



USA.gov is the U.S. government's official web portal to all federal, state and local government web resources and services.